Lapse_Rate
9.6 9.6 9.3 9.3 9.6 9.6 9.7 9.7 9.7 9.8 9.7 9.7 9.7 9.7 9.7 9.7 9.7 9.8 9.8 6.7 6.4 6.1 5.0 4.5 4.4 4.2 4.1 3.9 3.4 3.2 3.3 3.3 3.4 3.5 3.4 3.4 3.3 3.1 3.1 3.2 3.2 3.1 3.1
7.9 9.2 9.6 9.7 8.9 9.4 9.6 9.7 9.8 9.8 9.8 9.7 9.8 9.8 9.8 9.7 9.7 9.7 9.8 9.8 6.6 6.8 5.8 4.4 4.1 4.0 4.2 4.1 3.7 3.2 3.1 3.0 3.1 3.3 3.4 3.4 3.4 3.3 3.2 3.0 3.0 3.1 3.1
3.7 6.8 8.3 9.3 9.3 9.6 8.3 8.6 9.7 9.6 9.7 9.9 9.7 9.8 9.8 9.8 9.8 9.8 9.9 9.9 9.9 5.6 6.4 5.4 4.3 3.7 3.8 4.1 4.1 3.6 3.1 2.8 2.8 2.8 2.9 3.0 3.1 3.1 3.0 2.8 2.7 2.8 2.9
1.3 1.3 5.0 7.0 8.6 8.4 9.1 9.7 8.8 8.6 9.6 9.6 9.6 9.7 9.9 9.9 9.7 9.4 9.7 9.8 9.9 9.8 8.1 4.7 4.2 4.0 3.3 3.3 3.8 3.9 3.6 2.9 2.5 2.6 2.7 2.6 2.5 2.6 2.7 2.7 2.5 2.4 2.6
0.8 0.7 1.4 1.9 4.2 6.1 7.9 8.3 7.7 9.3 8.9 9.3 9.7 9.7 9.7 9.9 9.7 10.0 10.0 9.7 9.4 9.5 9.8 10.0 4.2 3.7 3.5 3.2 3.0 3.3 3.5 3.4 2.7 2.4 2.5 2.6 2.5 2.4 2.3 2.2 2.2 2.1 2.0
1.9 0.6 1.4 0.9 1.0 2.2 4.3 6.6 8.0 7.6 9.2 9.3 9.6 9.4 9.6 9.9 10.0 10.0 10.0 10.1 9.9 9.6 9.6 9.6 9.7 7.8 3.0 3.1 3.2 3.3 3.6 3.6 3.4 3.0 2.5 2.4 2.2 2.0 1.9 1.8 1.7 1.8 1.9
3.8 2.2 1.4 1.0 1.0 1.1 1.4 1.8 3.4 6.1 7.5 7.7 7.7 8.7 9.9 9.6 9.5 9.9 10.1 10.2 10.2 10.1 9.7 9.6 9.5 9.9 10.0 2.4 2.8 3.4 4.1 4.3 3.8 3.7 3.6 3.4 3.0 2.5 1.9 1.6 1.8 1.6 1.4
5.3 5.1 3.8 3.2 2.4 1.7 1.4 1.7 2.2 2.8 4.4 6.0 6.8 7.6 8.1 9.1 9.7 9.7 9.8 9.8 9.4 10.0 10.1 9.9 9.7 9.6 9.7 10.0 8.9 2.6 3.2 4.1 4.4 3.9 3.6 3.3 3.1 2.9 2.6 2.3 2.0 2.3 1.7
6.1 5.1 4.6 4.5 4.5 2.9 1.9 1.9 3.0 2.5 4.1 4.7 3.3 5.6 6.3 7.5 7.3 9.2 8.8 9.4 9.0 9.4 9.6 9.9 9.7 9.7 9.6 9.6 9.2 8.4 3.0 3.1 3.5 4.1 3.8 3.5 3.2 2.9 2.7 2.6 2.8 2.8 2.9
7.3 6.3 5.3 4.6 4.2 3.7 3.4 3.3 3.6 2.8 3.2 3.3 4.0 4.3 4.7 5.8 6.6 6.6 5.6 3.8 2.4 4.3 7.2 8.4 8.8 9.2 9.6 9.8 9.3 8.7 6.5 3.1 3.0 3.6 3.7 3.6 3.7 3.5 3.3 3.2 2.9 2.7 2.6
8.3 5.9 5.9 5.3 4.9 4.5 3.7 3.4 3.8 3.3 3.5 4.2 4.5 3.5 4.2 5.2 7.2 6.9 7.1 6.7 4.1 3.7 4.1 6.3 7.2 5.7 7.4 6.9 4.8 6.9 4.2 4.4 3.7 3.1 3.3 3.6 4.0 3.9 3.8 3.6 3.7 3.6 3.2
9.8 6.6 6.7 6.1 5.5 5.5 4.7 4.3 4.5 5.3 4.7 5.2 5.2 5.4 4.6 5.8 5.3 5.7 6.6 7.2 7.2 6.2 5.2 5.9 5.7 5.6 5.4 5.5 6.7 4.8 3.4 2.0 2.2 2.1 2.4 3.1 3.5 3.7 3.5 3.4 3.4 3.4 3.7
9.1 7.0 6.8 7.1 7.1 6.7 6.2 6.0 7.6 6.7 6.3 6.6 8.2 8.9 8.5 6.8 6.4 6.2 6.1 5.9 6.3 6.2 7.3 7.7 7.9 7.2 8.2 7.1 6.2 1.6 4.6 3.6 1.5 2.1 2.5 2.0 1.7 1.8 2.6 2.7 2.5 2.9 2.9
9.6 7.1 6.3 6.8 6.5 7.0 6.2 5.8 9.2 8.7 7.0 7.4 8.6 8.9 8.7 9.6 9.4 9.0 8.0 7.1 6.7 7.4 7.4 8.0 6.9 3.8 3.5 3.8 4.1 3.1 3.0 3.3 2.6 1.7 2.4 3.1 3.3 3.7 3.9 2.8 2.1 2.0 1.8
8.6 6.8 6.5 6.7 6.8 7.4 6.4 6.2 8.5 9.2 8.5 9.4 9.4 9.3 9.4 9.7 9.7 9.5 7.9 7.0 7.2 7.2 7.6 8.1 6.7 6.6 4.0 4.0 4.7 5.3 4.6 4.6 3.4 3.1 2.3 0.9 1.2 1.4 1.8 1.6 1.7 1.8 1.0
7.1 6.9 6.7 7.0 7.5 7.5 6.1 6.6 6.9 8.5 7.3 9.0 9.7 9.5 9.5 9.7 9.7 9.7 9.2 9.2 9.0 7.8 7.2 8.3 9.3 9.7 9.1 7.7 6.7 5.7 6.0 5.6 6.8 4.3 2.8 2.4 1.8 0.7 0.9 0.8 0.6 0.1 0.1
7.4 8.0 7.6 7.8 8.2 8.1 7.7 8.3 7.2 8.6 7.9 8.9 9.5 9.5 9.5 9.6 9.6 9.7 9.6 9.5 9.3 9.0 8.1 8.9 9.5 10.0 9.6 9.6 9.7 8.6 8.0 7.1 6.4 5.8 4.1 2.9 1.9 1.5 1.2 0.8 0.1 -0.2 -0.7
7.7 8.3 7.6 7.7 8.5 8.4 8.7 9.5 8.3 7.7 9.1 9.4 9.5 9.5 9.4 9.8 9.4 9.5 9.5 9.3 9.6 9.7 9.6 9.2 9.5 9.9 9.7 9.6 9.8 9.1 9.7 9.3 8.0 6.1 3.7 3.4 3.0 2.0 1.6 0.5 0.1 -0.0 -0.8
6.5 6.3 6.2 6.4 6.9 7.2 8.3 9.3 7.0 6.1 6.6 8.6 9.5 9.5 9.5 9.5 9.3 9.3 9.6 9.6 9.7 9.6 9.6 9.7 9.6 10.1 9.9 9.8 9.5 9.5 9.5 8.9 5.9 4.9 4.3 5.1 4.8 3.1 2.1 0.9 0.3 -0.5 -0.9
6.0 5.8 6.0 6.3 6.5 7.4 9.5 6.5 6.0 5.1 5.7 7.8 9.4 9.6 9.6 9.6 9.3 9.4 9.4 9.3 9.3 9.4 9.5 9.8 9.9 9.7 9.6 9.5 9.4 8.4 8.1 8.5 7.5 5.9 5.6 5.5 6.3 4.9 2.8 1.8 1.3 0.5 -0.4
6.1 6.2 6.8 7.5 8.3 9.4 8.3 6.0 5.5 5.1 5.8 7.5 9.4 9.8 9.8 8.8 7.9 7.0 8.4 8.6 8.3 8.5 8.9 9.3 9.3 9.4 9.1 9.0 8.4 8.2 8.0 8.2 6.7 8.7 7.8 6.7 7.0 5.8 5.3 3.0 2.0 1.4 0.9
6.1 6.6 8.2 9.1 9.5 9.9 4.3 3.5 3.9 5.4 6.1 8.7 9.5 9.6 9.8 9.3 8.7 6.6 7.6 7.1 7.1 8.0 8.1 8.1 8.7 8.7 8.6 8.4 8.3 7.8 7.6 7.4 7.6 8.6 8.4 5.8 8.1 5.7 4.8 3.6 1.7 1.7 2.0
6.3 7.4 8.6 9.4 9.5 9.7 5.7 4.0 2.5 5.8 8.0 9.6 9.6 9.6 9.5 9.7 7.9 8.6 8.4 7.9 8.2 8.0 7.8 7.9 7.6 7.9 8.4 8.6 8.1 7.8 7.9 7.8 7.5 7.7 7.8 5.8 6.1 5.6 3.8 3.7 2.4 2.2 2.6
7.5 8.5 9.1 9.6 9.6 9.7 5.7 3.9 2.5 7.1 8.3 9.5 9.6 9.5 9.3 9.0 9.0 8.7 8.7 8.8 9.0 9.1 9.0 9.2 8.7 8.7 8.8 8.9 8.7 8.6 8.2 7.7 7.7 7.6 7.3 6.9 6.9 4.9 4.2 2.9 1.7 2.3 2.8
8.6 9.4 9.7 9.6 9.6 9.6 5.6 5.0 5.0 7.6 7.9 8.7 9.2 9.3 9.4 9.2 8.6 8.3 8.2 8.1 8.7 8.8 9.0 8.6 8.4 8.3 8.1 7.5 7.5 7.2 6.4 6.6 7.0 7.2 7.2 6.1 5.3 4.8 3.0 1.5 1.3 1.2 1.6
9.5 9.6 9.6 9.7 9.2 9.6 7.9 5.6 7.0 9.0 8.7 8.8 9.1 9.4 8.7 8.5 7.6 7.7 8.5 8.6 7.9 7.3 7.8 7.7 7.7 7.5 7.2 8.0 7.2 8.0 7.1 6.8 6.8 7.1 5.8 6.2 5.9 4.9 4.3 1.9 1.7 1.6 1.6
Wind_Speed
6 10 8 11 11 13 10 8 11 12 12 14 16 17 17 18 19 17 17 12 14 15 16 17 18 18 19 22 24 25 24 24 24 24 24 24 24 24 24 24 24 24 24
10 9 9 10 10 15 14 13 9 7 9 11 11 16 16 19 19 18 18 19 22 23 23 23 22 22 22 22 25 26 26 26 26 26 26 26 26 25 25 26 26 26 26
17 14 9 9 11 14 11 10 13 12 11 10 13 12 14 16 19 19 19 19 21 25 30 30 29 26 25 23 24 26 27 27 28 28 28 28 28 27 27 27 27 28 28
20 14 9 10 17 14 12 10 8 9 11 11 10 10 11 11 13 16 19 19 20 21 19 34 32 30 28 26 26 27 28 29 30 31 30 30 30 30 30 30 29 30 30
19 15 12 15 22 13 9 9 9 11 10 12 12 11 11 11 12 14 15 16 20 21 21 21 30 31 30 28 28 28 30 31 31 31 31 30 30 31 32 32 32 31 32
19 17 13 16 18 9 11 10 12 11 12 11 13 14 10 11 11 11 13 15 19 20 22 22 20 19 32 31 30 31 31 31 32 31 31 32 32 32 32 32 32 32 32
19 19 14 14 16 10 12 12 11 13 10 10 11 13 12 13 14 14 13 14 15 16 20 19 18 19 18 32 33 35 33 31 30 31 30 31 31 32 32 32 32 33 33
19 17 17 11 13 9 12 13 12 7 8 9 8 11 12 12 13 14 14 14 17 13 14 16 19 19 18 17 16 30 30 27 26 26 27 27 28 29 30 31 32 33 34
19 18 18 16 14 10 9 11 13 14 9 8 13 5 5 9 9 11 12 13 15 10 10 12 12 13 14 13 15 15 28 31 27 24 24 25 26 27 28 28 30 32 36
18 19 18 17 14 10 10 9 8 9 11 11 9 10 12 11 5 7 6 11 11 14 16 7 10 11 15 14 15 18 16 25 25 24 22 22 23 24 25 26 28 30 32
17 19 19 16 15 10 9 10 9 8 7 7 8 9 10 12 8 4 6 6 7 8 13 11 11 9 16 16 14 20 19 14 21 20 17 17 21 23 24 25 27 29 30
10 18 17 16 17 15 10 9 9 10 8 5 6 6 6 5 9 6 7 10 9 9 9 11 10 8 10 11 18 21 28 23 19 10 11 15 20 22 23 26 28 29 30
8 12 16 13 12 16 15 15 10 9 11 10 12 9 6 5 5 5 6 8 8 8 7 10 8 8 10 15 17 24 19 24 18 24 21 17 18 20 25 27 26 29 29
9 15 15 16 16 17 16 17 9 10 12 9 11 10 9 9 8 8 6 9 10 7 9 13 10 7 12 18 22 30 21 25 26 27 24 23 23 26 28 27 24 24 27
10 14 15 14 15 15 16 16 10 11 13 12 12 12 10 10 10 9 8 8 9 10 12 8 6 13 13 17 19 21 21 25 26 27 22 22 24 25 26 26 25 27 25
13 12 12 13 13 15 16 13 12 12 14 11 10 13 13 11 12 10 9 10 9 9 9 10 13 14 12 13 21 19 20 24 20 7 11 16 18 19 21 22 23 23 26
12 10 11 11 12 12 13 11 13 13 14 14 14 14 15 14 11 11 9 9 11 8 12 12 12 13 14 14 15 18 17 13 16 20 23 21 18 19 19 20 21 23 22
12 12 12 11 11 12 12 12 13 14 14 15 15 14 15 11 14 13 11 14 12 13 12 17 14 12 13 13 13 14 12 18 17 22 28 21 16 18 20 19 21 21 24
10 11 11 11 11 12 12 11 13 14 15 15 15 15 15 15 14 12 14 12 12 12 12 12 13 11 11 11 12 12 13 14 18 24 25 23 13 15 17 21 21 20 20
10 10 10 11 11 12 12 12 15 16 16 15 15 15 15 15 16 17 13 15 14 13 14 12 13 12 11 13 10 10 10 11 13 15 19 21 14 14 10 16 18 17 17
8 10 10 10 11 11 7 11 14 15 16 17 16 15 14 13 12 11 11 13 13 12 13 13 13 12 11 11 12 9 11 12 14 12 10 8 10 11 7 13 13 15 13
9 10 11 11 11 9 8 8 9 14 16 16 16 16 16 17 17 18 13 12 13 14 15 12 12 14 16 12 10 10 11 12 13 8 12 14 11 12 4 6 12 12 12
10 11 11 12 12 13 7 9 10 14 15 15 16 16 15 13 16 15 16 15 16 16 16 14 16 14 17 14 13 13 14 13 14 12 13 16 11 11 1 4 9 10 11
10 10 11 12 12 10 8 10 13 16 15 16 16 17 15 16 16 14 15 16 16 16 14 12 14 16 16 15 15 14 16 15 12 9 9 12 8 2 1 2 10 9 10
9 10 11 13 13 13 6 8 15 15 16 17 16 17 16 16 18 17 15 17 18 16 17 20 20 23 26 25 20 13 10 10 11 9 8 9 4 2 1 1 2 7 8
10 10 12 12 11 13 12 13 11 10 13 12 16 18 18 16 16 18 16 18 18 14 14 15 15 17 19 16 19 12 9 9 8 8 2 6 6 2 2 1 0 2 2
Wind_Direction
273 274 279 289 280 289 276 253 267 273 276 252 259 262 258 258 263 269 278 219 208 215 222 228 244 251 247 238 234 234 235 237 239 242 243 243 244 243 242 244 246 245 245
290 274 273 260 265 283 263 262 255 274 278 273 260 257 256 261 261 257 257 259 223 221 227 230 232 238 243 239 233 233 234 235 237 240 242 243 243 243 242 242 242 243 244
351 299 283 279 277 258 268 270 269 254 256 257 264 269 264 261 261 261 265 264 263 232 227 229 231 233 236 238 237 234 234 236 236 236 237 239 242 243 242 240 241 242 242
10 353 321 287 293 286 270 261 256 266 261 258 262 266 275 271 257 246 252 259 265 269 249 228 227 227 228 229 232 234 235 234 235 236 237 236 235 237 240 241 240 239 240
16 11 2 359 344 315 294 275 274 263 259 273 264 255 254 254 257 264 263 252 247 251 262 273 231 229 227 226 230 233 236 237 237 238 239 239 238 237 236 237 238 237 237
22 18 11 7 8 355 350 310 280 277 276 264 270 280 269 264 267 258 255 254 255 250 246 248 254 245 231 228 227 230 234 237 240 242 242 241 239 237 239 239 239 240 240
20 22 15 14 12 6 354 347 350 302 272 276 283 280 266 265 255 252 254 259 257 254 249 241 240 247 251 226 227 229 232 236 238 241 246 249 249 247 243 240 242 249 246
21 21 20 17 15 9 8 356 356 337 325 315 278 278 271 270 244 238 235 240 244 243 255 252 240 240 244 255 240 226 234 238 242 243 246 250 254 254 254 253 250 250 253
27 25 22 22 20 19 10 6 354 6 341 322 343 308 295 258 309 284 237 234 245 227 253 264 265 269 271 268 264 258 219 226 231 238 243 247 250 254 256 257 259 259 258
28 21 23 20 21 24 18 4 360 15 4 345 333 347 331 346 332 309 330 329 344 335 332 310 312 304 276 257 252 251 242 220 228 236 245 254 258 261 263 262 260 259 259
28 19 17 16 15 14 11 360 351 10 8 354 340 352 343 332 7 336 317 326 341 312 304 320 328 317 306 314 332 323 314 269 242 239 252 265 270 271 272 273 274 271 266
19 18 14 14 14 7 8 3 1 356 353 338 351 338 7 337 335 338 326 322 300 304 307 311 298 305 314 334 326 339 326 329 287 277 288 293 293 292 288 286 282 279 278
13 11 9 9 10 9 5 4 4 356 360 349 344 344 338 324 320 340 321 333 323 318 305 305 306 306 330 337 328 5 339 332 351 356 346 328 307 295 295 291 287 286 281
8 5 5 4 6 5 4 2 2 358 353 347 344 354 330 333 337 336 326 318 318 316 316 322 324 18 353 339 332 338 336 329 335 331 325 312 304 302 301 291 287 284 284
359 2 2 0 3 2 3 359 1 356 350 346 339 348 338 332 343 328 351 346 328 319 317 326 338 332 329 328 323 322 321 320 318 310 340 357 345 338 323 314 311 304 298
358 356 358 357 359 1 1 358 357 355 350 346 343 340 340 337 329 334 336 327 314 323 309 325 311 317 315 311 316 320 319 311 298 17 358 355 350 340 333 323 318 314 308
355 354 355 354 357 358 357 355 353 352 344 340 341 339 335 336 334 324 324 317 312 303 301 301 301 306 308 317 319 318 323 344 333 337 354 346 343 329 322 321 323 323 312
351 349 352 352 353 354 349 352 350 345 339 337 333 334 328 331 328 327 336 321 317 316 306 310 316 311 308 319 317 323 317 319 327 321 335 308 325 328 324 325 323 318 313
348 352 351 349 349 346 342 357 350 341 335 331 332 329 326 326 325 336 325 315 321 311 322 308 310 308 310 316 308 315 315 321 317 319 315 310 316 320 321 326 327 330 328
343 348 347 346 344 342 338 357 344 337 331 328 325 323 321 324 335 326 328 323 326 326 317 311 309 313 316 318 317 326 324 320 318 315 304 293 308 315 314 322 328 336 344
339 342 341 340 339 333 19 355 342 331 327 324 320 319 323 339 325 357 332 333 327 322 315 311 310 310 311 317 327 326 315 315 307 307 307 322 323 313 320 324 333 337 352
343 338 337 336 334 329 67 3 340 328 323 317 319 323 327 324 342 333 329 322 312 309 303 300 302 304 305 309 316 319 313 307 305 305 331 307 307 300 322 323 338 344 355
334 335 334 332 331 327 37 357 349 326 316 318 321 324 324 321 319 315 312 303 304 299 278 283 287 289 297 304 305 302 299 294 293 299 303 295 297 284 350 317 340 349 6
333 331 328 330 327 327 36 21 341 328 321 324 324 322 315 312 311 305 307 306 303 303 297 290 286 289 290 296 294 292 293 290 286 288 287 287 299 247 244 335 1 6 18
324 324 326 327 325 329 65 21 351 332 321 319 317 311 311 308 307 316 312 304 304 302 298 288 284 287 284 284 276 281 277 276 289 298 283 281 286 293 319 353 324 14 27
318 322 324 322 323 329 349 354 336 316 311 313 312 311 309 304 315 315 310 307 304 302 303 301 295 291 289 289 282 269 280 277 283 298 285 333 324 307 285 167 304 337 6